User: anonymous   Login
Location: Nairn
(57.5833°N, 3.8667°W)
Time: 23:00:50
(UTC+00:00)
Language:

Tiros 1 - Orbit

View from above orbital plane
View from above orbital plane
View from above satellite
View from above satellite

Ground track
Ground track

The orbit data is extracted from the following two-line orbital elements,

1    29U 60002B   20340.18109846 -.00000070 +00000-0 +20530-4 0  9997
2    29 048.3790 222.8848 0024383 243.6526 116.1881 14.74389123243733
Epoch (UTC): 05 December 2020 04:20:46
Eccentricity: 0.0024383
inclination: 48.3790°
perigee height: 630 km
apogee height: 664 km
right ascension of ascending node: 222.8848°
argument of perigee: 243.6526°
revolutions per day: 14.74389123
mean anomaly at epoch: 116.1881°
orbit number at epoch: 24373

The dashed part of the orbit path shows where the satellite is in the earth's shadow,  

DLR